User: anonymous   Login
Location: Dayton
(39.7590°N, 84.1920°W)
Time: 23:05:05
(UTC-04:00)
Language:

Cosmos 1939 Rocket - Orbit

View from above orbital plane
View from above orbital plane
View from above satellite
View from above satellite

Ground track
Ground track

The orbit data is extracted from the following two-line orbital elements,

1 19046U 88032B   15143.24207703  .00001359  00000-0  10917-3 0  9999
2 19046 097.6166 196.2822 0040776 028.1296 332.2119 15.01075827459183
Epoch (UTC): 23 May 2015 05:48:35
Eccentricity: 0.0040776
inclination: 97.6166°
perigee height: 535 km
apogee height: 592 km
right ascension of ascending node: 196.2822°
argument of perigee: 28.1296°
revolutions per day: 15.01075827
mean anomaly at epoch: 332.2119°
orbit number at epoch: 45918

The dashed part of the orbit path shows where the satellite is in the earth's shadow,  

DLR